Time,TemperatureF,DewpointF,PressureIn,WindDirection,WindDirectionDegrees,WindSpeedMPH,WindSpeedGustMPH,Humidity,HourlyPrecipIn,Conditions,Clouds,dailyrainin,SoftwareType,DateUTC
2013-03-23 00:00:00,21.8,10.0,30.10,NNW,338,7.6,7.6,60,0.00,,,0.00,WUHU216HW,2013-03-23 06:00:00,
2013-03-23 00:05:00,21.8,10.0,30.10,North,0,5.4,8.1,60,0.00,,,0.00,WUHU216HW,2013-03-23 06:05:00,
2013-03-23 00:10:00,21.6,9.9,30.10,NNW,338,5.4,8.1,60,0.00,,,0.00,WUHU216HW,2013-03-23 06:10:00,
2013-03-23 00:15:00,21.6,9.9,30.10,NNW,338,4.5,5.6,60,0.00,,,0.00,WUHU216HW,2013-03-23 06:15:00,
2013-03-23 00:20:00,21.4,9.7,30.10,NNW,338,3.6,4.7,60,0.00,,,0.00,WUHU216HW,2013-03-23 06:20:00,
2013-03-23 00:25:00,21.4,9.7,30.10,NNW,338,2.5,4.3,60,0.00,,,0.00,WUHU216HW,2013-03-23 06:25:00,
2013-03-23 00:30:00,21.2,9.5,30.10,NNW,338,3.1,4.3,60,0.00,,,0.00,WUHU216HW,2013-03-23 06:30:00,
2013-03-23 00:35:00,21.1,9.4,30.10,NNW,338,2.9,4.9,60,0.00,,,0.00,WUHU216HW,2013-03-23 06:35:00,
2013-03-23 00:40:00,21.1,9.4,30.11,NNW,338,2.5,4.9,60,0.00,,,0.00,WUHU216HW,2013-03-23 06:40:00,
2013-03-23 00:45:00,20.9,9.6,30.11,NNW,338,3.4,4.7,61,0.00,,,0.00,WUHU216HW,2013-03-23 06:45:00,
2013-03-23 00:50:00,20.9,9.6,30.11,NNW,338,1.8,4.7,61,0.00,,,0.00,WUHU216HW,2013-03-23 06:50:00,
2013-03-23 00:55:00,20.5,9.6,30.11,NNW,338,0.7,3.1,62,0.00,,,0.00,WUHU216HW,2013-03-23 06:55:00,
2013-03-23 01:00:00,20.2,9.5,30.11,NNW,338,0.7,1.8,63,0.00,,,0.00,WUHU216HW,2013-03-23 07:00:00,
2013-03-23 01:05:00,19.6,8.9,30.11,NNW,338,1.8,1.8,63,0.00,,,0.00,WUHU216HW,2013-03-23 07:05:00,
2013-03-23 01:10:00,19.3,9.3,30.11,NNW,338,2.9,2.9,65,0.00,,,0.00,WUHU216HW,2013-03-23 07:10:00,
2013-03-23 01:15:00,19.4,9.5,30.11,North,0,3.4,3.4,65,0.00,,,0.00,WUHU216HW,2013-03-23 07:15:00,
2013-03-23 01:20:00,19.6,9.3,30.11,NNW,338,2.5,3.4,64,0.00,,,0.00,WUHU216HW,2013-03-23 07:20:00,
2013-03-23 01:25:00,19.8,9.5,30.12,NNW,338,2.0,4.5,64,0.00,,,0.00,WUHU216HW,2013-03-23 07:25:00,
2013-03-23 01:30:00,19.8,9.1,30.11,NNW,338,3.1,4.7,63,0.00,,,0.00,WUHU216HW,2013-03-23 07:30:00,
2013-03-23 01:35:00,19.8,9.1,30.12,North,0,5.8,5.8,63,0.00,,,0.00,WUHU216HW,2013-03-23 07:35:00,
2013-03-23 01:40:00,19.8,8.8,30.12,North,0,2.5,5.8,62,0.00,,,0.00,WUHU216HW,2013-03-23 07:40:00,
2013-03-23 01:45:00,19.8,8.8,30.12,North,0,3.4,4.9,62,0.00,,,0.00,WUHU216HW,2013-03-23 07:45:00,
2013-03-23 01:50:00,19.8,8.8,30.12,North,0,4.9,4.9,62,0.00,,,0.00,WUHU216HW,2013-03-23 07:50:00,
2013-03-23 01:55:00,19.6,8.7,30.12,North,0,1.8,4.9,62,0.00,,,0.00,WUHU216HW,2013-03-23 07:55:00,
2013-03-23 02:00:00,19.4,8.7,30.12,NNW,338,1.8,3.6,63,0.00,,,0.00,WUHU216HW,2013-03-23 08:00:00,
2013-03-23 02:05:00,19.1,9.1,30.13,NNW,338,2.2,4.0,65,0.00,,,0.00,WUHU216HW,2013-03-23 08:05:00,
2013-03-23 02:10:00,18.9,9.0,30.13,North,0,1.8,4.0,65,0.00,,,0.00,WUHU216HW,2013-03-23 08:10:00,
2013-03-23 02:15:00,18.7,8.8,30.13,NNW,338,2.7,2.9,65,0.00,,,0.00,WUHU216HW,2013-03-23 08:15:00,
2013-03-23 02:20:00,18.9,9.0,30.13,NNW,338,3.1,3.8,65,0.00,,,0.00,WUHU216HW,2013-03-23 08:20:00,
2013-03-23 02:25:00,18.9,8.7,30.13,North,0,2.7,3.8,64,0.00,,,0.00,WUHU216HW,2013-03-23 08:25:00,
2013-03-23 02:30:00,18.9,8.7,30.13,NNW,338,3.6,4.5,64,0.00,,,0.00,WUHU216HW,2013-03-23 08:30:00,
2013-03-23 02:35:00,18.9,8.7,30.14,North,0,4.0,4.7,64,0.00,,,0.00,WUHU216HW,2013-03-23 08:35:00,
2013-03-23 02:40:00,18.7,8.5,30.13,North,0,4.9,5.4,64,0.00,,,0.00,WUHU216HW,2013-03-23 08:40:00,
2013-03-23 02:45:00,18.4,8.5,30.14,NNE,23,3.4,5.4,65,0.00,,,0.00,WUHU216HW,2013-03-23 08:45:00,
2013-03-23 02:50:00,17.8,8.4,30.14,North,0,1.8,4.9,66,0.00,,,0.00,WUHU216HW,2013-03-23 08:50:00,
2013-03-23 02:55:00,17.6,8.6,30.14,NNE,23,1.3,3.4,67,0.00,,,0.00,WUHU216HW,2013-03-23 08:55:00,
2013-03-23 03:00:00,17.3,8.2,30.14,NNE,23,2.2,3.1,67,0.00,,,0.00,WUHU216HW,2013-03-23 09:00:00,
2013-03-23 03:05:00,17.3,8.2,30.14,NNE,23,2.2,3.4,67,0.00,,,0.00,WUHU216HW,2013-03-23 09:05:00,
2013-03-23 03:10:00,17.3,8.2,30.14,NNE,23,2.5,3.4,67,0.00,,,0.00,WUHU216HW,2013-03-23 09:10:00,
2013-03-23 03:15:00,17.3,8.2,30.14,North,0,3.1,4.0,67,0.00,,,0.00,WUHU216HW,2013-03-23 09:15:00,
2013-03-23 03:20:00,17.3,8.2,30.14,NNE,23,2.9,4.3,67,0.00,,,0.00,WUHU216HW,2013-03-23 09:20:00,
2013-03-23 03:25:00,17.3,7.8,30.14,NNW,338,4.5,4.9,66,0.00,,,0.00,WUHU216HW,2013-03-23 09:25:00,
2013-03-23 03:30:00,17.8,7.7,30.14,North,0,3.8,6.9,64,0.00,,,0.00,WUHU216HW,2013-03-23 09:30:00,
2013-03-23 03:35:00,18.0,7.5,30.14,North,0,2.5,6.9,63,0.00,,,0.00,WUHU216HW,2013-03-23 09:35:00,
2013-03-23 03:40:00,18.0,7.1,30.14,North,0,2.5,5.4,62,0.00,,,0.00,WUHU216HW,2013-03-23 09:40:00,
2013-03-23 03:45:00,18.0,6.8,30.15,North,0,5.1,5.8,61,0.00,,,0.00,WUHU216HW,2013-03-23 09:45:00,
2013-03-23 03:50:00,18.0,6.8,30.14,North,0,5.6,6.3,61,0.00,,,0.00,WUHU216HW,2013-03-23 09:50:00,
2013-03-23 03:55:00,17.8,6.9,30.15,NNE,23,5.1,6.3,62,0.00,,,0.00,WUHU216HW,2013-03-23 09:55:00,
2013-03-23 04:00:00,17.6,7.1,30.15,NNE,23,4.7,8.1,63,0.00,,,0.00,WUHU216HW,2013-03-23 10:00:00,
2013-03-23 04:05:00,17.6,7.5,30.15,North,0,5.6,8.1,64,0.00,,,0.00,WUHU216HW,2013-03-23 10:05:00,
2013-03-23 04:10:00,17.6,7.5,30.15,North,0,6.0,7.2,64,0.00,,,0.00,WUHU216HW,2013-03-23 10:10:00,
2013-03-23 04:15:00,17.3,7.5,30.15,NNE,23,4.0,7.2,65,0.00,,,0.00,WUHU216HW,2013-03-23 10:15:00,
2013-03-23 04:20:00,17.1,7.3,30.15,NNE,23,5.4,6.5,65,0.00,,,0.00,WUHU216HW,2013-03-23 10:20:00,
2013-03-23 04:25:00,17.1,7.3,30.15,NNE,23,4.0,6.5,65,0.00,,,0.00,WUHU216HW,2013-03-23 10:25:00,
2013-03-23 04:30:00,17.1,7.3,30.15,North,0,4.0,6.3,65,0.00,,,0.00,WUHU216HW,2013-03-23 10:30:00,
2013-03-23 04:35:00,17.1,6.9,30.15,NNE,23,5.1,8.1,64,0.00,,,0.00,WUHU216HW,2013-03-23 10:35:00,
2013-03-23 04:40:00,16.9,6.4,30.15,NNE,23,4.7,8.1,63,0.00,,,0.00,WUHU216HW,2013-03-23 10:40:00,
2013-03-23 04:45:00,16.9,6.4,30.15,NE,45,5.1,8.1,63,0.00,,,0.00,WUHU216HW,2013-03-23 10:45:00,
2013-03-23 04:50:00,16.9,6.4,30.15,North,0,3.8,8.1,63,0.00,,,0.00,WUHU216HW,2013-03-23 10:50:00,
2013-03-23 04:55:00,16.7,6.2,30.15,NE,45,4.0,5.4,63,0.00,,,0.00,WUHU216HW,2013-03-23 10:55:00,
2013-03-23 05:00:00,16.6,6.4,30.15,North,0,3.6,5.4,64,0.00,,,0.00,WUHU216HW,2013-03-23 11:00:00,
2013-03-23 05:05:00,16.2,6.4,30.15,NNE,23,1.8,4.0,65,0.00,,,0.00,WUHU216HW,2013-03-23 11:05:00,
2013-03-23 05:10:00,16.0,6.2,30.15,NNE,23,1.1,3.8,65,0.00,,,0.00,WUHU216HW,2013-03-23 11:10:00,
2013-03-23 05:15:00,15.8,6.0,30.16,North,0,0.0,2.7,65,0.00,,,0.00,WUHU216HW,2013-03-23 11:15:00,
2013-03-23 05:20:00,15.7,5.9,30.16,North,0,0.0,1.1,65,0.00,,,0.00,WUHU216HW,2013-03-23 11:20:00,
2013-03-23 05:25:00,15.3,5.6,30.16,North,0,0.0,0.4,65,0.00,,,0.00,WUHU216HW,2013-03-23 11:25:00,
2013-03-23 05:30:00,14.8,4.7,30.16,North,0,0.0,0.0,64,0.00,,,0.00,WUHU216HW,2013-03-23 11:30:00,
2013-03-23 05:35:00,14.4,4.8,30.16,NE,45,1.1,1.1,65,0.00,,,0.00,WUHU216HW,2013-03-23 11:35:00,
2013-03-23 05:40:00,14.0,4.4,30.16,ENE,68,1.8,2.0,65,0.00,,,0.00,WUHU216HW,2013-03-23 11:40:00,
2013-03-23 05:45:00,13.9,4.6,30.16,NE,45,0.9,2.0,66,0.00,,,0.00,WUHU216HW,2013-03-23 11:45:00,
2013-03-23 05:50:00,13.9,4.6,30.16,NNE,23,0.4,2.5,66,0.00,,,0.00,WUHU216HW,2013-03-23 11:50:00,
2013-03-23 05:55:00,13.9,5.2,30.16,NE,45,1.8,2.5,68,0.00,,,0.00,WUHU216HW,2013-03-23 11:55:00,
2013-03-23 06:00:00,13.9,5.0,30.16,NE,45,1.8,2.2,67,0.00,,,0.00,WUHU216HW,2013-03-23 12:00:00,
2013-03-23 06:05:00,13.9,5.2,30.17,NNE,23,2.0,2.2,68,0.00,,,0.00,WUHU216HW,2013-03-23 12:05:00,
2013-03-23 06:10:00,13.9,5.0,30.17,NNE,23,1.6,2.5,67,0.00,,,0.00,WUHU216HW,2013-03-23 12:10:00,
2013-03-23 06:15:00,13.9,5.2,30.17,NNE,23,1.8,2.5,68,0.00,,,0.00,WUHU216HW,2013-03-23 12:15:00,
2013-03-23 06:20:00,13.9,5.2,30.17,NE,45,1.1,1.8,68,0.00,,,0.00,WUHU216HW,2013-03-23 12:20:00,
2013-03-23 06:25:00,13.9,5.2,30.17,NNE,23,0.9,1.8,68,0.00,,,0.00,WUHU216HW,2013-03-23 12:25:00,
2013-03-23 06:31:00,13.7,5.4,30.18,NNE,23,1.1,1.8,69,0.00,,,0.00,WUHU216HW,2013-03-23 12:31:00,
2013-03-23 06:36:00,13.7,5.8,30.18,NNE,23,0.9,1.8,70,0.00,,,0.00,WUHU216HW,2013-03-23 12:36:00,
2013-03-23 06:41:00,13.5,5.9,30.18,NNE,23,1.1,2.5,71,0.00,,,0.00,WUHU216HW,2013-03-23 12:41:00,
2013-03-23 06:46:00,13.5,5.6,30.18,NE,45,2.0,2.9,70,0.00,,,0.00,WUHU216HW,2013-03-23 12:46:00,
2013-03-23 06:51:00,13.5,5.6,30.18,NE,45,1.1,2.9,70,0.00,,,0.00,WUHU216HW,2013-03-23 12:51:00,
2013-03-23 06:56:00,13.7,5.8,30.18,NE,45,0.4,2.2,70,0.00,,,0.00,WUHU216HW,2013-03-23 12:56:00,
2013-03-23 07:01:00,13.7,5.8,30.19,NE,45,1.3,1.3,70,0.00,,,0.00,WUHU216HW,2013-03-23 13:01:00,
2013-03-23 07:06:00,14.0,6.1,30.19,ENE,68,0.0,1.3,70,0.00,,,0.00,WUHU216HW,2013-03-23 13:06:00,
2013-03-23 07:11:00,14.0,6.1,30.19,ENE,68,0.4,1.1,70,0.00,,,0.00,WUHU216HW,2013-03-23 13:11:00,
2013-03-23 07:16:00,14.0,6.1,30.19,ENE,68,0.7,0.7,70,0.00,,,0.00,WUHU216HW,2013-03-23 13:16:00,
2013-03-23 07:21:00,14.4,6.8,30.19,NE,45,0.2,1.8,71,0.00,,,0.00,WUHU216HW,2013-03-23 13:21:00,
2013-03-23 07:26:00,14.6,6.9,30.19,ENE,68,0.4,1.8,71,0.00,,,0.00,WUHU216HW,2013-03-23 13:26:00,
2013-03-23 07:31:00,14.6,6.6,30.19,ENE,68,0.9,0.9,70,0.00,,,0.00,WUHU216HW,2013-03-23 13:31:00,
2013-03-23 07:37:00,14.6,6.6,30.19,ENE,68,1.8,1.8,70,0.00,,,0.00,WUHU216HW,2013-03-23 13:37:00,
2013-03-23 07:42:00,14.4,6.5,30.19,ENE,68,1.8,2.2,70,0.00,,,0.00,WUHU216HW,2013-03-23 13:42:00,
2013-03-23 07:47:00,14.2,6.3,30.19,ENE,68,1.1,2.5,70,0.00,,,0.00,WUHU216HW,2013-03-23 13:47:00,
2013-03-23 07:52:00,14.4,6.8,30.20,ENE,68,1.6,2.5,71,0.00,,,0.00,WUHU216HW,2013-03-23 13:52:00,
2013-03-23 07:57:00,14.6,6.9,30.20,ENE,68,0.2,2.5,71,0.00,,,0.00,WUHU216HW,2013-03-23 13:57:00,
2013-03-23 08:03:00,14.6,6.9,30.20,ENE,68,0.0,2.5,71,0.00,,,0.00,WUHU216HW,2013-03-23 14:03:00,
2013-03-23 08:08:00,14.8,7.0,30.20,ENE,68,0.0,1.6,71,0.00,,,0.00,WUHU216HW,2013-03-23 14:08:00,
2013-03-23 08:13:00,15.3,7.6,30.20,ENE,68,0.4,1.8,71,0.00,,,0.00,WUHU216HW,2013-03-23 14:13:00,
2013-03-23 08:18:00,15.5,7.8,30.20,SW,225,1.3,1.8,71,0.00,,,0.00,WUHU216HW,2013-03-23 14:18:00,
2013-03-23 08:23:00,15.8,8.0,30.20,SW,225,1.6,1.6,71,0.00,,,0.00,WUHU216HW,2013-03-23 14:23:00,
2013-03-23 08:28:00,16.0,8.2,30.21,WSW,248,1.6,1.6,71,0.00,,,0.00,WUHU216HW,2013-03-23 14:28:00,
2013-03-23 08:33:00,16.2,8.4,30.20,WSW,248,0.4,1.6,71,0.00,,,0.00,WUHU216HW,2013-03-23 14:33:00,
2013-03-23 08:38:00,16.6,8.7,30.20,SE,135,2.5,2.5,71,0.00,,,0.00,WUHU216HW,2013-03-23 14:38:00,
2013-03-23 08:43:00,16.9,9.1,30.21,SE,135,1.3,2.5,71,0.00,,,0.00,WUHU216HW,2013-03-23 14:43:00,
2013-03-23 08:48:00,17.3,9.5,30.21,ESE,113,1.3,2.5,71,0.00,,,0.00,WUHU216HW,2013-03-23 14:48:00,
2013-03-23 08:53:00,17.6,9.8,30.21,ESE,113,0.4,1.8,71,0.00,,,0.00,WUHU216HW,2013-03-23 14:53:00,
2013-03-23 08:58:00,18.2,10.0,30.21,SSW,203,0.4,1.8,70,0.00,,,0.00,WUHU216HW,2013-03-23 14:58:00,
2013-03-23 09:03:00,18.5,10.4,30.21,South,180,1.3,1.8,70,0.00,,,0.00,WUHU216HW,2013-03-23 15:03:00,
2013-03-23 09:08:00,19.1,10.5,30.21,SSE,158,0.7,1.8,69,0.00,,,0.00,WUHU216HW,2013-03-23 15:08:00,
2013-03-23 09:13:00,19.6,11.0,30.21,SSE,158,0.4,2.2,69,0.00,,,0.00,WUHU216HW,2013-03-23 15:13:00,
2013-03-23 09:18:00,20.0,11.3,30.21,WSW,248,1.6,2.2,69,0.00,,,0.00,WUHU216HW,2013-03-23 15:18:00,
2013-03-23 09:23:00,20.5,11.3,30.21,SE,135,1.8,2.5,67,0.00,,,0.00,WUHU216HW,2013-03-23 15:23:00,
2013-03-23 09:28:00,20.7,11.1,30.21,SE,135,4.0,4.0,66,0.00,,,0.00,WUHU216HW,2013-03-23 15:28:00,
2013-03-23 09:33:00,21.2,11.3,30.21,East,90,1.8,4.0,65,0.00,,,0.00,WUHU216HW,2013-03-23 15:33:00,
2013-03-23 09:38:00,21.2,11.3,30.21,SE,135,0.7,3.1,65,0.00,,,0.00,WUHU216HW,2013-03-23 15:38:00,
2013-03-23 09:43:00,21.4,11.1,30.20,SSE,158,2.7,3.6,64,0.00,,,0.00,WUHU216HW,2013-03-23 15:43:00,
2013-03-23 09:48:00,21.8,11.4,30.21,SW,225,0.4,3.6,64,0.00,,,0.00,WUHU216HW,2013-03-23 15:48:00,
2013-03-23 09:53:00,21.8,10.4,30.21,NW,315,1.8,2.5,61,0.00,,,0.00,WUHU216HW,2013-03-23 15:53:00,
2013-03-23 09:58:00,21.8,9.6,30.21,North,0,0.9,3.4,59,0.00,,,0.00,WUHU216HW,2013-03-23 15:58:00,
2013-03-23 10:03:00,22.0,8.6,30.21,North,0,3.1,3.4,56,0.00,,,0.00,WUHU216HW,2013-03-23 16:03:00,
2013-03-23 10:08:00,22.0,8.2,30.21,WNW,293,4.7,4.7,55,0.00,,,0.00,WUHU216HW,2013-03-23 16:08:00,
2013-03-23 10:13:00,22.1,7.9,30.21,NW,315,4.9,4.9,54,0.00,,,0.00,WUHU216HW,2013-03-23 16:13:00,
2013-03-23 10:18:00,22.5,8.6,30.21,WNW,293,2.2,4.9,55,0.00,,,0.00,WUHU216HW,2013-03-23 16:18:00,
2013-03-23 10:23:00,22.9,9.0,30.21,SW,225,1.1,4.0,55,0.00,,,0.00,WUHU216HW,2013-03-23 16:23:00,
2013-03-23 10:28:00,23.2,8.9,30.21,NW,315,0.7,1.1,54,0.00,,,0.00,WUHU216HW,2013-03-23 16:28:00,
2013-03-23 10:33:00,23.4,9.6,30.21,ESE,113,1.8,1.8,55,0.00,,,0.00,WUHU216HW,2013-03-23 16:33:00,
2013-03-23 10:38:00,24.1,9.4,30.21,NW,315,3.4,4.0,53,0.00,,,0.00,WUHU216HW,2013-03-23 16:38:00,
2013-03-23 10:43:00,23.9,8.0,30.21,NW,315,2.9,4.0,50,0.00,,,0.00,WUHU216HW,2013-03-23 16:43:00,
2013-03-23 10:48:00,23.6,8.1,30.21,West,270,0.4,2.9,51,0.00,,,0.00,WUHU216HW,2013-03-23 16:48:00,
2013-03-23 10:53:00,23.8,8.6,30.21,SW,225,0.9,2.5,52,0.00,,,0.00,WUHU216HW,2013-03-23 16:53:00,
2013-03-23 10:58:00,23.9,8.8,30.21,SSW,203,1.1,2.5,52,0.00,,,0.00,WUHU216HW,2013-03-23 16:58:00,
2013-03-23 11:03:00,24.1,9.4,30.21,SW,225,0.4,2.5,53,0.00,,,0.00,WUHU216HW,2013-03-23 17:03:00,
2013-03-23 11:08:00,24.7,8.2,30.21,NNW,338,2.5,2.5,49,0.00,,,0.00,WUHU216HW,2013-03-23 17:08:00,
2013-03-23 11:13:00,24.8,8.8,30.21,NW,315,3.1,3.1,50,0.00,,,0.00,WUHU216HW,2013-03-23 17:13:00,
2013-03-23 11:18:00,25.2,8.6,30.21,West,270,3.6,4.5,49,0.00,,,0.00,WUHU216HW,2013-03-23 17:18:00,
2013-03-23 11:23:00,25.0,7.6,30.21,WSW,248,4.3,5.4,47,0.00,,,0.00,WUHU216HW,2013-03-23 17:23:00,
2013-03-23 11:28:00,25.2,8.2,30.21,SW,225,3.8,5.4,48,0.00,,,0.00,WUHU216HW,2013-03-23 17:28:00,
2013-03-23 11:33:00,25.4,8.4,30.21,SSW,203,2.7,4.0,48,0.00,,,0.00,WUHU216HW,2013-03-23 17:33:00,
2013-03-23 11:38:00,26.1,9.0,30.21,SW,225,1.8,3.1,48,0.00,,,0.00,WUHU216HW,2013-03-23 17:38:00,
2013-03-23 11:43:00,26.5,9.3,30.20,SE,135,3.1,3.1,48,0.00,,,0.00,WUHU216HW,2013-03-23 17:43:00,
2013-03-23 11:48:00,27.0,9.8,30.20,SE,135,0.9,3.1,48,0.00,,,0.00,WUHU216HW,2013-03-23 17:48:00,
2013-03-23 11:53:00,27.2,9.6,30.20,West,270,4.7,4.7,47,0.00,,,0.00,WUHU216HW,2013-03-23 17:53:00,
2013-03-23 11:58:00,26.5,8.4,30.20,SE,135,0.4,4.7,46,0.00,,,0.00,WUHU216HW,2013-03-23 17:58:00,
2013-03-23 12:03:00,26.5,8.8,30.20,West,270,2.5,4.0,47,0.00,,,0.00,WUHU216HW,2013-03-23 18:03:00,
2013-03-23 12:08:00,27.0,9.8,30.20,SSE,158,1.1,3.4,48,0.00,,,0.00,WUHU216HW,2013-03-23 18:08:00,
2013-03-23 12:13:00,27.7,10.5,30.20,SSE,158,4.9,5.1,48,0.00,,,0.00,WUHU216HW,2013-03-23 18:13:00,
2013-03-23 12:18:00,28.3,11.1,30.19,SE,135,2.0,5.1,48,0.00,,,0.00,WUHU216HW,2013-03-23 18:18:00,
2013-03-23 12:23:00,28.6,11.4,30.19,SSW,203,0.7,3.1,48,0.00,,,0.00,WUHU216HW,2013-03-23 18:23:00,
2013-03-23 12:28:00,28.8,10.5,30.19,North,0,1.8,2.2,46,0.00,,,0.00,WUHU216HW,2013-03-23 18:28:00,
2013-03-23 12:33:00,28.4,9.7,30.19,NNW,338,4.3,6.7,45,0.00,,,0.00,WUHU216HW,2013-03-23 18:33:00,
2013-03-23 12:38:00,28.6,10.4,30.19,SSE,158,0.4,6.7,46,0.00,,,0.00,WUHU216HW,2013-03-23 18:38:00,
2013-03-23 12:43:00,29.3,11.1,30.19,North,0,2.5,4.0,46,0.00,,,0.00,WUHU216HW,2013-03-23 18:43:00,
2013-03-23 12:48:00,29.5,11.2,30.19,SE,135,6.0,6.0,46,0.00,,,0.00,WUHU216HW,2013-03-23 18:48:00,
2013-03-23 12:53:00,30.2,11.3,30.18,SE,135,2.0,6.9,45,0.00,,,0.00,WUHU216HW,2013-03-23 18:53:00,
2013-03-23 12:58:00,30.6,11.7,30.18,SSE,158,4.7,6.9,45,0.00,,,0.00,WUHU216HW,2013-03-23 18:58:00,
2013-03-23 13:03:00,30.6,11.2,30.18,SW,225,3.6,4.7,44,0.00,,,0.00,WUHU216HW,2013-03-23 19:03:00,
2013-03-23 13:09:00,31.0,12.0,30.18,East,90,4.7,6.0,45,0.00,,,0.00,WUHU216HW,2013-03-23 19:09:00,
2013-03-23 13:14:00,31.3,12.3,30.18,SE,135,5.4,6.0,45,0.00,,,0.00,WUHU216HW,2013-03-23 19:14:00,
2013-03-23 13:19:00,31.9,12.8,30.17,ESE,113,5.1,5.4,45,0.00,,,0.00,WUHU216HW,2013-03-23 19:19:00,
2013-03-23 13:24:00,32.0,12.4,30.17,SE,135,0.7,5.1,44,0.00,,,0.00,WUHU216HW,2013-03-23 19:24:00,
2013-03-23 13:29:00,32.4,12.2,30.17,SSW,203,4.9,5.8,43,0.00,,,0.00,WUHU216HW,2013-03-23 19:29:00,
2013-03-23 13:34:00,32.4,11.8,30.17,WSW,248,3.4,5.8,42,0.00,,,0.00,WUHU216HW,2013-03-23 19:34:00,
2013-03-23 13:39:00,32.8,12.6,30.17,East,90,1.8,5.8,43,0.00,,,0.00,WUHU216HW,2013-03-23 19:39:00,
2013-03-23 13:44:00,33.1,12.4,30.17,SE,135,2.2,6.0,42,0.00,,,0.00,WUHU216HW,2013-03-23 19:44:00,
2013-03-23 13:49:00,33.3,13.1,30.17,SSW,203,0.4,6.0,43,0.00,,,0.00,WUHU216HW,2013-03-23 19:49:00,
2013-03-23 13:54:00,33.1,10.8,30.16,West,270,4.0,4.7,39,0.00,,,0.00,WUHU216HW,2013-03-23 19:54:00,
2013-03-23 13:59:00,32.4,11.3,30.16,SSE,158,2.5,4.0,41,0.00,,,0.00,WUHU216HW,2013-03-23 19:59:00,
2013-03-23 14:04:00,32.8,11.6,30.16,SE,135,1.3,4.0,41,0.00,,,0.00,WUHU216HW,2013-03-23 20:04:00,
2013-03-23 14:09:00,33.1,11.9,30.16,South,180,3.6,5.8,41,0.00,,,0.00,WUHU216HW,2013-03-23 20:09:00,
2013-03-23 14:14:00,33.5,12.2,30.15,NW,315,3.4,6.3,41,0.00,,,0.00,WUHU216HW,2013-03-23 20:14:00,
2013-03-23 14:19:00,32.9,11.3,30.15,WSW,248,1.8,6.3,40,0.00,,,0.00,WUHU216HW,2013-03-23 20:19:00,
2013-03-23 14:24:00,32.4,10.2,30.15,WNW,293,2.2,5.6,39,0.00,,,0.00,WUHU216HW,2013-03-23 20:24:00,
2013-03-23 14:29:00,31.9,8.4,30.15,NNW,338,3.4,8.3,37,0.00,,,0.00,WUHU216HW,2013-03-23 20:29:00,
2013-03-23 14:34:00,31.0,8.2,30.14,NNW,338,4.0,8.3,38,0.00,,,0.00,WUHU216HW,2013-03-23 20:34:00,
2013-03-23 14:39:00,31.3,8.6,30.14,NNW,338,2.5,6.7,38,0.00,,,0.00,WUHU216HW,2013-03-23 20:39:00,
2013-03-23 14:44:00,31.1,7.7,30.14,North,0,5.6,6.7,37,0.00,,,0.00,WUHU216HW,2013-03-23 20:44:00,
2013-03-23 14:49:00,31.3,7.9,30.14,North,0,6.3,6.7,37,0.00,,,0.00,WUHU216HW,2013-03-23 20:49:00,
2013-03-23 14:54:00,31.3,7.9,30.14,WSW,248,3.8,6.7,37,0.00,,,0.00,WUHU216HW,2013-03-23 20:54:00,
2013-03-23 14:59:00,31.9,9.0,30.14,SSW,203,1.8,6.3,38,0.00,,,0.00,WUHU216HW,2013-03-23 20:59:00,
2013-03-23 15:04:00,32.8,10.4,30.14,SSE,158,1.1,5.8,39,0.00,,,0.00,WUHU216HW,2013-03-23 21:04:00,
2013-03-23 15:09:00,33.5,11.7,30.14,SW,225,9.8,9.8,40,0.00,,,0.00,WUHU216HW,2013-03-23 21:09:00,
2013-03-23 15:14:00,34.0,10.4,30.14,West,270,1.1,9.8,37,0.00,,,0.00,WUHU216HW,2013-03-23 21:14:00,
2013-03-23 15:19:00,33.8,9.5,30.14,WSW,248,4.9,5.6,36,0.00,,,0.00,WUHU216HW,2013-03-23 21:19:00,
2013-03-23 15:24:00,33.5,9.2,30.14,NNW,338,1.1,5.6,36,0.00,,,0.00,WUHU216HW,2013-03-23 21:24:00,
2013-03-23 15:29:00,32.6,8.4,30.14,NW,315,7.6,7.6,36,0.00,,,0.00,WUHU216HW,2013-03-23 21:29:00,
2013-03-23 15:34:00,31.9,9.0,30.14,NNW,338,5.4,8.9,38,0.00,,,0.00,WUHU216HW,2013-03-23 21:34:00,
2013-03-23 15:39:00,31.3,8.6,30.15,NW,315,6.3,8.9,38,0.00,,,0.00,WUHU216HW,2013-03-23 21:39:00,
2013-03-23 15:44:00,31.1,8.4,30.15,NNW,338,5.4,7.4,38,0.00,,,0.00,WUHU216HW,2013-03-23 21:44:00,
2013-03-23 15:49:00,31.3,9.8,30.15,NW,315,3.1,7.6,40,0.00,,,0.00,WUHU216HW,2013-03-23 21:49:00,
2013-03-23 15:54:00,32.0,14.0,30.15,SW,225,1.3,7.6,47,0.00,,,0.00,WUHU216HW,2013-03-23 21:54:00,
2013-03-23 15:59:00,32.6,13.4,30.15,SW,225,5.4,7.8,45,0.00,,,0.00,WUHU216HW,2013-03-23 21:59:00,
2013-03-23 16:04:00,33.3,14.6,30.15,WNW,293,7.8,7.8,46,0.00,,,0.00,WUHU216HW,2013-03-23 22:04:00,
2013-03-23 16:09:00,33.7,14.4,30.14,WSW,248,9.6,9.6,45,0.00,,,0.00,WUHU216HW,2013-03-23 22:09:00,
2013-03-23 16:14:00,33.7,12.9,30.14,NW,315,2.9,9.6,42,0.00,,,0.00,WUHU216HW,2013-03-23 22:14:00,
2013-03-23 16:19:00,33.8,13.6,30.14,SSE,158,2.0,6.7,43,0.00,,,0.00,WUHU216HW,2013-03-23 22:19:00,
2013-03-23 16:24:00,34.2,12.9,30.14,West,270,3.8,5.6,41,0.00,,,0.00,WUHU216HW,2013-03-23 22:24:00,
2013-03-23 16:29:00,33.3,11.6,30.14,West,270,2.7,5.6,40,0.00,,,0.00,WUHU216HW,2013-03-23 22:29:00,
2013-03-23 16:34:00,32.8,11.6,30.14,WNW,293,2.7,5.4,41,0.00,,,0.00,WUHU216HW,2013-03-23 22:34:00,
2013-03-23 16:39:00,32.2,11.6,30.14,NW,315,8.3,8.3,42,0.00,,,0.00,WUHU216HW,2013-03-23 22:39:00,
2013-03-23 16:44:00,31.3,10.8,30.14,NW,315,7.6,9.4,42,0.00,,,0.00,WUHU216HW,2013-03-23 22:44:00,
2013-03-23 16:49:00,30.8,11.4,30.14,NW,315,6.3,9.4,44,0.00,,,0.00,WUHU216HW,2013-03-23 22:49:00,
2013-03-23 16:54:00,30.6,11.7,30.14,NW,315,8.5,8.5,45,0.00,,,0.00,WUHU216HW,2013-03-23 22:54:00,
2013-03-23 16:59:00,30.4,13.1,30.14,WNW,293,7.6,8.5,48,0.00,,,0.00,WUHU216HW,2013-03-23 22:59:00,
2013-03-23 17:04:00,29.9,12.5,30.14,NW,315,5.8,8.5,48,0.00,,,0.00,WUHU216HW,2013-03-23 23:04:00,
2013-03-23 17:09:00,30.1,11.7,30.14,NW,315,2.7,7.8,46,0.00,,,0.00,WUHU216HW,2013-03-23 23:09:00,
2013-03-23 17:14:00,30.4,11.5,30.14,West,270,4.9,4.9,45,0.00,,,0.00,WUHU216HW,2013-03-23 23:14:00,
2013-03-23 17:19:00,30.6,12.2,30.14,West,270,3.4,5.4,46,0.00,,,0.00,WUHU216HW,2013-03-23 23:19:00,
2013-03-23 17:24:00,30.4,11.5,30.14,NW,315,3.4,5.6,45,0.00,,,0.00,WUHU216HW,2013-03-23 23:24:00,
2013-03-23 17:29:00,30.6,11.7,30.14,SW,225,2.5,5.6,45,0.00,,,0.00,WUHU216HW,2013-03-23 23:29:00,
2013-03-23 17:34:00,31.0,12.0,30.14,West,270,4.7,4.7,45,0.00,,,0.00,WUHU216HW,2013-03-23 23:34:00,
2013-03-23 17:39:00,31.7,12.6,30.14,NNE,23,1.1,4.7,45,0.00,,,0.00,WUHU216HW,2013-03-23 23:39:00,
2013-03-23 17:44:00,34.0,14.2,30.14,NW,315,0.2,4.0,44,0.00,,,0.00,WUHU216HW,2013-03-23 23:44:00,
2013-03-23 17:49:00,37.1,16.6,30.14,SSE,158,4.5,4.5,43,0.00,,,0.00,WUHU216HW,2013-03-23 23:49:00,
2013-03-23 17:54:00,39.2,18.0,30.14,South,180,2.9,4.5,42,0.00,,,0.00,WUHU216HW,2013-03-23 23:54:00,
2013-03-23 17:59:00,40.0,16.3,30.13,SW,225,2.7,2.9,38,0.00,,,0.00,WUHU216HW,2013-03-23 23:59:00,
2013-03-23 18:04:00,40.7,16.3,30.14,SW,225,2.5,2.9,37,0.00,,,0.00,WUHU216HW,2013-03-24 00:04:00,
2013-03-23 18:09:00,41.4,16.3,30.14,WSW,248,2.2,5.4,36,0.00,,,0.00,WUHU216HW,2013-03-24 00:09:00,
2013-03-23 18:14:00,41.2,16.1,30.14,WSW,248,1.6,5.4,36,0.00,,,0.00,WUHU216HW,2013-03-24 00:14:00,
2013-03-23 18:19:00,41.0,15.3,30.14,WSW,248,3.1,3.4,35,0.00,,,0.00,WUHU216HW,2013-03-24 00:19:00,
2013-03-23 18:24:00,40.5,14.9,30.14,West,270,1.6,3.4,35,0.00,,,0.00,WUHU216HW,2013-03-24 00:24:00,
2013-03-23 18:29:00,40.9,14.5,30.13,NNW,338,0.4,3.4,34,0.00,,,0.00,WUHU216HW,2013-03-24 00:29:00,
2013-03-23 18:34:00,41.9,14.8,30.13,NNW,338,0.7,1.8,33,0.00,,,0.00,WUHU216HW,2013-03-24 00:34:00,
2013-03-23 18:39:00,42.1,13.6,30.13,NW,315,0.0,1.8,31,0.00,,,0.00,WUHU216HW,2013-03-24 00:39:00,
2013-03-23 18:44:00,43.4,16.0,30.13,West,270,0.9,1.8,33,0.00,,,0.00,WUHU216HW,2013-03-24 00:44:00,
2013-03-23 18:49:00,42.5,12.3,30.13,SW,225,1.3,2.5,29,0.00,,,0.00,WUHU216HW,2013-03-24 00:49:00,
2013-03-23 18:54:00,42.1,13.6,30.13,WSW,248,0.7,2.5,31,0.00,,,0.00,WUHU216HW,2013-03-24 00:54:00,
2013-03-23 18:59:00,41.9,12.8,30.13,WSW,248,2.2,2.2,30,0.00,,,0.00,WUHU216HW,2013-03-24 00:59:00,
2013-03-23 19:04:00,40.0,11.7,30.13,WSW,248,1.3,2.2,31,0.00,,,0.00,WUHU216HW,2013-03-24 01:04:00,
2013-03-23 19:09:00,37.3,10.0,30.14,WSW,248,0.9,1.8,32,0.00,,,0.00,WUHU216HW,2013-03-24 01:09:00,
2013-03-23 19:14:00,34.9,8.6,30.13,SW,225,0.4,0.9,33,0.00,,,0.00,WUHU216HW,2013-03-24 01:14:00,
2013-03-23 19:19:00,33.3,9.1,30.14,SSW,203,0.7,1.1,36,0.00,,,0.00,WUHU216HW,2013-03-24 01:19:00,
2013-03-23 19:24:00,32.4,8.9,30.14,SSW,203,0.0,1.1,37,0.00,,,0.00,WUHU216HW,2013-03-24 01:24:00,
2013-03-23 19:29:00,31.5,8.1,30.14,SSW,203,0.0,0.4,37,0.00,,,0.00,WUHU216HW,2013-03-24 01:29:00,
2013-03-23 19:34:00,31.0,7.6,30.14,SSW,203,0.0,0.4,37,0.00,,,0.00,WUHU216HW,2013-03-24 01:34:00,
2013-03-23 19:39:00,30.1,7.4,30.14,SSW,203,0.0,0.0,38,0.00,,,0.00,WUHU216HW,2013-03-24 01:39:00,
2013-03-23 19:44:00,29.3,7.4,30.14,South,180,0.4,0.7,39,0.00,,,0.00,WUHU216HW,2013-03-24 01:44:00,
2013-03-23 19:49:00,28.4,7.2,30.14,SE,135,0.9,0.9,40,0.00,,,0.00,WUHU216HW,2013-03-24 01:49:00,
2013-03-23 19:54:00,27.7,7.0,30.14,NE,45,1.1,1.1,41,0.00,,,0.00,WUHU216HW,2013-03-24 01:54:00,
2013-03-23 20:00:00,27.0,6.8,30.14,NE,45,2.2,2.2,42,0.00,,,0.00,WUHU216HW,2013-03-24 02:00:00,
2013-03-23 20:05:00,26.3,6.8,30.14,NE,45,0.9,2.5,43,0.00,,,0.00,WUHU216HW,2013-03-24 02:05:00,
2013-03-23 20:10:00,25.7,6.8,30.14,NE,45,1.8,2.0,44,0.00,,,0.00,WUHU216HW,2013-03-24 02:10:00,
2013-03-23 20:15:00,25.2,6.8,30.14,NE,45,2.0,2.2,45,0.00,,,0.00,WUHU216HW,2013-03-24 02:15:00,
2013-03-23 20:20:00,24.7,6.8,30.14,NE,45,2.7,2.7,46,0.00,,,0.00,WUHU216HW,2013-03-24 02:20:00,
2013-03-23 20:25:00,24.1,6.2,30.14,ENE,68,0.9,2.7,46,0.00,,,0.00,WUHU216HW,2013-03-24 02:25:00,
2013-03-23 20:30:00,23.9,6.6,30.15,ENE,68,1.1,2.5,47,0.00,,,0.00,WUHU216HW,2013-03-24 02:30:00,
2013-03-23 20:35:00,23.8,6.8,30.15,ESE,113,2.5,2.5,48,0.00,,,0.00,WUHU216HW,2013-03-24 02:35:00,
2013-03-23 20:40:00,23.6,6.8,30.15,East,90,1.8,2.5,48,0.00,,,0.00,WUHU216HW,2013-03-24 02:40:00,
2013-03-23 20:45:00,23.4,7.0,30.15,ESE,113,0.4,2.5,49,0.00,,,0.00,WUHU216HW,2013-03-24 02:45:00,
2013-03-23 20:50:00,23.0,7.2,30.15,East,90,2.5,2.7,50,0.00,,,0.00,WUHU216HW,2013-03-24 02:50:00,
2013-03-23 20:55:00,22.9,7.0,30.15,ENE,68,1.8,2.7,50,0.00,,,0.00,WUHU216HW,2013-03-24 02:55:00,
2013-03-23 21:00:00,22.7,6.8,30.16,East,90,2.0,2.5,50,0.00,,,0.00,WUHU216HW,2013-03-24 03:00:00,
2013-03-23 21:05:00,22.3,6.8,30.16,East,90,2.5,2.7,51,0.00,,,0.00,WUHU216HW,2013-03-24 03:05:00,
2013-03-23 21:10:00,22.1,7.1,30.16,ENE,68,2.0,3.1,52,0.00,,,0.00,WUHU216HW,2013-03-24 03:10:00,
2013-03-23 21:15:00,22.0,7.4,30.16,ENE,68,2.5,3.4,53,0.00,,,0.00,WUHU216HW,2013-03-24 03:15:00,
2013-03-23 21:20:00,22.0,7.7,30.16,East,90,1.1,4.0,54,0.00,,,0.00,WUHU216HW,2013-03-24 03:20:00,
2013-03-23 21:25:00,22.1,8.4,30.17,ESE,113,2.2,4.0,55,0.00,,,0.00,WUHU216HW,2013-03-24 03:25:00,
2013-03-23 21:30:00,22.1,8.7,30.17,East,90,2.9,3.4,56,0.00,,,0.00,WUHU216HW,2013-03-24 03:30:00,
2013-03-23 21:35:00,22.3,8.9,30.17,ESE,113,3.6,3.6,56,0.00,,,0.00,WUHU216HW,2013-03-24 03:35:00,
2013-03-23 21:40:00,22.3,9.7,30.17,East,90,3.4,4.5,58,0.00,,,0.00,WUHU216HW,2013-03-24 03:40:00,
2013-03-23 21:45:00,22.1,9.5,30.17,ESE,113,3.6,4.7,58,0.00,,,0.00,WUHU216HW,2013-03-24 03:45:00,
2013-03-23 21:50:00,22.3,10.1,30.17,ESE,113,3.4,4.7,59,0.00,,,0.00,WUHU216HW,2013-03-24 03:50:00,
2013-03-23 21:56:00,22.3,10.1,30.17,SE,135,0.7,3.4,59,0.00,,,0.00,WUHU216HW,2013-03-24 03:56:00,
2013-03-23 22:00:00,22.1,9.9,30.17,SE,135,0.7,3.4,59,0.00,,,0.00,WUHU216HW,2013-03-24 04:00:00,
2013-03-23 22:05:00,22.1,9.9,30.18,ESE,113,0.0,1.1,59,0.00,,,0.00,WUHU216HW,2013-03-24 04:05:00,
2013-03-23 22:10:00,22.0,9.8,30.18,ESE,113,0.0,1.1,59,0.00,,,0.00,WUHU216HW,2013-03-24 04:10:00,
2013-03-23 22:15:00,21.8,10.0,30.18,ESE,113,0.0,0.0,60,0.00,,,0.00,WUHU216HW,2013-03-24 04:15:00,
2013-03-23 22:20:00,21.4,9.7,30.18,ESE,113,0.7,0.7,60,0.00,,,0.00,WUHU216HW,2013-03-24 04:20:00,
2013-03-23 22:25:00,21.2,9.5,30.18,ESE,113,0.2,0.7,60,0.00,,,0.00,WUHU216HW,2013-03-24 04:25:00,
2013-03-23 22:30:00,21.1,9.7,30.18,ESE,113,0.2,0.7,61,0.00,,,0.00,WUHU216HW,2013-03-24 04:30:00,
2013-03-23 22:35:00,20.7,9.4,30.18,East,90,0.7,0.7,61,0.00,,,0.00,WUHU216HW,2013-03-24 04:35:00,
2013-03-23 22:40:00,20.5,9.2,30.18,ENE,68,2.5,2.5,61,0.00,,,0.00,WUHU216HW,2013-03-24 04:40:00,
2013-03-23 22:45:00,20.5,9.6,30.18,NE,45,1.6,2.5,62,0.00,,,0.00,WUHU216HW,2013-03-24 04:45:00,
2013-03-23 22:50:00,20.3,10.0,30.18,NE,45,2.7,3.4,64,0.00,,,0.00,WUHU216HW,2013-03-24 04:50:00,
2013-03-23 22:55:00,20.3,10.4,30.18,NE,45,2.5,3.4,65,0.00,,,0.00,WUHU216HW,2013-03-24 04:55:00,
2013-03-23 23:00:00,20.3,10.4,30.18,NE,45,1.1,3.4,65,0.00,,,0.00,WUHU216HW,2013-03-24 05:00:00,
2013-03-23 23:05:00,20.2,10.2,30.18,NE,45,1.1,2.5,65,0.00,,,0.00,WUHU216HW,2013-03-24 05:05:00,
2013-03-23 23:10:00,20.2,10.2,30.18,NE,45,1.8,2.5,65,0.00,,,0.00,WUHU216HW,2013-03-24 05:10:00,
2013-03-23 23:15:00,20.2,10.5,30.18,NE,45,2.5,2.9,66,0.00,,,0.00,WUHU216HW,2013-03-24 05:15:00,
2013-03-23 23:20:00,20.0,10.4,30.18,ENE,68,1.1,2.9,66,0.00,,,0.00,WUHU216HW,2013-03-24 05:20:00,
2013-03-23 23:25:00,19.8,10.2,30.18,ENE,68,0.4,1.8,66,0.00,,,0.00,WUHU216HW,2013-03-24 05:25:00,
2013-03-23 23:30:00,19.8,9.8,30.18,ENE,68,0.7,1.3,65,0.00,,,0.00,WUHU216HW,2013-03-24 05:30:00,
2013-03-23 23:35:00,19.6,9.6,30.18,ENE,68,0.4,0.9,65,0.00,,,0.00,WUHU216HW,2013-03-24 05:35:00,
2013-03-23 23:40:00,19.4,9.8,30.18,ENE,68,0.9,1.8,66,0.00,,,0.00,WUHU216HW,2013-03-24 05:40:00,
2013-03-23 23:46:00,19.4,9.8,30.18,ENE,68,0.0,1.8,66,0.00,,,0.00,WUHU216HW,2013-03-24 05:46:00,
2013-03-23 23:51:00,19.4,9.8,30.18,ENE,68,0.0,1.3,66,0.00,,,0.00,WUHU216HW,2013-03-24 05:51:00,
2013-03-23 23:56:00,19.4,9.8,30.19,ENE,68,1.1,1.3,66,0.00,,,0.00,WUHU216HW,2013-03-24 05:56:00,